Terminal Aerodrome Forecast
Issued by NWS

Current Version | Previous Version | Text Only | Print | Product List | Glossary On
Versions: 1 2 3 4 5 6 7 8 9 10 11 12 13 14 15 16 17 18 19 20 21 22 23 24 25 26 27 28 29 30 31 32 33 34 35 36 37 38 39 40 41 42 43 44 45 46 47 48 49 50
000
FTUS41 KCTP 190540
TAFBFD
TAF
KBFD 190540Z 1906/2006 29010KT 4SM BR BKN008 OVC013
     FM190900 31009KT P6SM SCT007 OVC015
     FM191700 30004KT P6SM BKN025 OVC050
     FM192100 31008KT P6SM SCT025=

USA.gov is the U.S. government's official web portal to all federal, state and local government web resources and services.